Clarion, IA

11:16 PM CDT on July 22, 2017 (GMT -0500)
Clarion Municipal

Weather History for KCAV - December, 2012

Change the Weather History Date:

Tuesday, December 25, 2012

  Actual Average Record
Temperature  
Mean Temperature 3 °F -  
Max Temperature 8 °F 22 °F 47 °F (1982)
Min Temperature -2 °F 6 °F -22 °F (1983)
Degree Days  
Heating Degree Days 62    
Moisture  
Dew Point -5 °F    
Average Humidity 74    
Maximum Humidity 79    
Minimum Humidity 67    
Precipitation  
Precipitation 0.00 in - - ()
Sea Level Pressure  
Sea Level Pressure 30.36 in    
Wind  
Wind Speed 11 mph (North)    
Max Wind Speed 16 mph    
Max Gust Speed 20 mph    
Visibility 10 miles    
Events      
Averages and records for this station are not official NWS values.
T = Trace of Precipitation, MM = Missing Value Source: NWS Daily Summary

Daily Weather History Graph

Daily Weather History Graph

Search for Another Location

Airport or City:

Trip Planner

Search our weather history database for the weather conditions in past years. The results will help you decide how hot, cold, wet, or windy it might be!

Date:

Astronomy

Dec. 25, 2012 Rise Set
Actual Time 7:44 AM CST 4:46 PM CST
Civil Twilight 7:11 AM CST 5:19 PM CST
Nautical Twilight 6:36 AM CST 5:54 PM CST
Astronomical Twilight 6:01 AM CST 6:29 PM CST
Moon 2:56 PM CST (12/25) 5:15 AM CST (12/25)
Length of Visible Light 10h 07m
Length of Day
9h 02m
Waxing Gibbous, 94% of the Moon is Illuminated
Dec 25
Waxing Gibbous
Dec 28
Full
Jan 4
Last Quarter
Jan 11
New
Jan 18
First Quarter

Hourly Weather History & Observations

Time (CST) Temp. Windchill Dew Point Humidity Pressure Visibility Wind Dir Wind Speed Gust Speed Precip Events Conditions
12:15 AM -0.4 °F -15.7 °F -7.6 °F 72% 30.27 in 10.0 mi NNW 9.2 mph - N/A   Clear
12:35 AM -0.4 °F -15.7 °F -7.6 °F 72% 30.27 in 10.0 mi NNW 9.2 mph - N/A   Partly Cloudy
12:55 AM -0.4 °F -16.7 °F -7.6 °F 72% 30.27 in 10.0 mi North 10.4 mph - N/A   Partly Cloudy
1:15 AM -0.4 °F -16.7 °F -7.6 °F 72% 30.28 in 10.0 mi North 10.4 mph - N/A   Clear
1:35 AM -0.4 °F -16.7 °F -7.6 °F 72% 30.28 in 10.0 mi North 10.4 mph - N/A   Clear
1:55 AM -0.4 °F -19.2 °F -7.6 °F 72% 30.27 in 10.0 mi North 13.8 mph - N/A   Clear
2:15 AM -0.4 °F -19.2 °F -7.6 °F 72% 30.28 in 10.0 mi North 13.8 mph - N/A   Clear
2:35 AM -0.4 °F -19.2 °F -7.6 °F 72% 30.28 in 10.0 mi North 13.8 mph - N/A   Clear
2:55 AM -0.4 °F -19.2 °F -7.6 °F 72% 30.29 in 10.0 mi North 13.8 mph 19.6 mph N/A   Clear
3:15 AM -0.4 °F -18.4 °F -7.6 °F 72% 30.29 in 10.0 mi North 12.7 mph - N/A   Clear
3:35 AM -0.4 °F -15.7 °F -7.6 °F 72% 30.30 in 10.0 mi North 9.2 mph 15.0 mph N/A   Clear
3:55 AM -0.4 °F -13.4 °F -7.6 °F 72% 30.30 in 10.0 mi North 6.9 mph - N/A   Clear
4:15 AM -0.4 °F -17.6 °F -7.6 °F 72% 30.31 in 10.0 mi North 11.5 mph - N/A   Partly Cloudy
4:35 AM -2.2 °F -15.6 °F -7.6 °F 78% 30.31 in 10.0 mi North 6.9 mph - N/A   Partly Cloudy
4:55 AM -2.2 °F -16.8 °F -7.6 °F 78% 30.32 in 10.0 mi North 8.1 mph - N/A   Scattered Clouds
5:15 AM -2.2 °F -15.6 °F -7.6 °F 78% 30.33 in 10.0 mi North 6.9 mph - N/A   Overcast
5:35 AM -2.2 °F -16.8 °F -7.6 °F 78% 30.33 in 10.0 mi North 8.1 mph - N/A   Overcast
5:55 AM -2.2 °F -18.9 °F -7.6 °F 78% 30.33 in 10.0 mi North 10.4 mph - N/A   Mostly Cloudy
6:15 AM -2.2 °F -14.2 °F -7.6 °F 78% 30.35 in 10.0 mi North 5.8 mph - N/A   Partly Cloudy
6:35 AM -2.2 °F -16.8 °F -9.4 °F 71% 30.35 in 10.0 mi North 8.1 mph - N/A   Clear
6:55 AM -2.2 °F -18.0 °F -9.4 °F 71% 30.36 in 10.0 mi North 9.2 mph - N/A   Clear
7:15 AM -2.2 °F -19.9 °F -9.4 °F 71% 30.36 in 10.0 mi North 11.5 mph - N/A   Scattered Clouds
7:35 AM -2.2 °F -18.9 °F -9.4 °F 71% 30.37 in 10.0 mi North 10.4 mph - N/A   Mostly Cloudy
7:55 AM -2.2 °F -18.9 °F -9.4 °F 71% 30.37 in 10.0 mi North 10.4 mph - N/A   Partly Cloudy
8:15 AM -2.2 °F -20.7 °F -9.4 °F 71% 30.38 in 10.0 mi North 12.7 mph - N/A   Clear
8:35 AM -2.2 °F -21.5 °F -9.4 °F 71% 30.38 in 10.0 mi North 13.8 mph - N/A   Clear
8:55 AM -2.2 °F -19.9 °F -9.4 °F 71% 30.39 in 10.0 mi North 11.5 mph 17.3 mph N/A   Clear
9:15 AM -0.4 °F -18.4 °F -7.6 °F 72% 30.40 in 10.0 mi North 12.7 mph - N/A   Clear
9:35 AM -0.4 °F -18.4 °F -7.6 °F 72% 30.40 in 10.0 mi North 12.7 mph - N/A   Partly Cloudy
9:55 AM -0.4 °F -19.9 °F -7.6 °F 72% 30.42 in 10.0 mi North 15.0 mph - N/A   Mostly Cloudy
10:15 AM -0.4 °F -16.7 °F -7.6 °F 72% 30.43 in 10.0 mi North 10.4 mph - N/A   Mostly Cloudy
10:35 AM 1.4 °F -14.5 °F -5.8 °F 72% 30.44 in 10.0 mi North 10.4 mph - N/A   Scattered Clouds
10:55 AM 1.4 °F -12.5 °F -5.8 °F 72% 30.45 in 10.0 mi North 8.1 mph - N/A   Partly Cloudy
11:15 AM 3.2 °F -12.2 °F -4.0 °F 72% 30.44 in 10.0 mi NNW 10.4 mph - N/A   Clear
11:35 AM 3.2 °F -11.3 °F -4.0 °F 72% 30.44 in 10.0 mi NNW 9.2 mph - N/A   Partly Cloudy
11:55 AM 3.2 °F -11.3 °F -4.0 °F 72% 30.44 in 10.0 mi NNW 9.2 mph - N/A   Partly Cloudy
12:15 PM 5.0 °F -10.8 °F -2.2 °F 72% 30.43 in 10.0 mi North 11.5 mph - N/A   Clear
12:35 PM 5.0 °F -10.0 °F -2.2 °F 72% 30.42 in 10.0 mi NNW 10.4 mph - N/A   Clear
12:55 PM 5.0 °F -12.3 °F -2.2 °F 72% 30.39 in 10.0 mi North 13.8 mph - N/A   Clear
1:15 PM 5.0 °F -11.6 °F -0.4 °F 78% 30.37 in 10.0 mi North 12.7 mph 18.4 mph N/A   Clear
1:35 PM 5.0 °F -13.6 °F -0.4 °F 78% 30.35 in 10.0 mi North 16.1 mph - N/A   Clear
1:55 PM 5.0 °F -13.6 °F -0.4 °F 78% 30.33 in 10.0 mi North 16.1 mph - N/A   Partly Cloudy
2:15 PM 6.8 °F -10.0 °F -0.4 °F 72% 30.33 in 10.0 mi North 13.8 mph - N/A   Clear
2:35 PM 6.8 °F -10.7 °F 1.4 °F 79% 30.34 in 10.0 mi North 15.0 mph - N/A   Partly Cloudy
2:55 PM 6.8 °F -8.6 °F 1.4 °F 79% 30.36 in 10.0 mi North 11.5 mph 18.4 mph N/A   Partly Cloudy
3:15 PM 8.6 °F -3.7 °F 1.4 °F 73% 30.39 in 10.0 mi North 8.1 mph - N/A   Clear
3:35 PM 8.6 °F -5.5 °F -0.4 °F 67% 30.39 in 10.0 mi North 10.4 mph - N/A   Clear
3:55 PM 6.8 °F -5.9 °F -0.4 °F 72% 30.40 in 10.0 mi North 8.1 mph - N/A   Clear
4:15 PM 6.8 °F -3.5 °F -0.4 °F 72% 30.41 in 10.0 mi North 5.8 mph - N/A   Clear
4:35 PM 6.8 °F -3.5 °F -0.4 °F 72% 30.41 in 10.0 mi NNW 5.8 mph - N/A   Clear
4:55 PM 5.0 °F -8.1 °F -0.4 °F 78% 30.41 in 10.0 mi NNW 8.1 mph - N/A   Clear
5:15 PM 5.0 °F -5.6 °F -0.4 °F 78% 30.43 in 10.0 mi NNW 5.8 mph - N/A   Clear
5:35 PM 5.0 °F -6.9 °F -0.4 °F 78% 30.42 in 10.0 mi NNW 6.9 mph - N/A   Clear
5:55 PM 5.0 °F -9.1 °F -0.4 °F 78% 30.43 in 10.0 mi NNW 9.2 mph - N/A   Clear
6:15 PM 5.0 °F -11.6 °F -0.4 °F 78% 30.42 in 10.0 mi NNW 12.7 mph - N/A   Clear
6:35 PM 5.0 °F -12.3 °F -0.4 °F 78% 30.42 in 10.0 mi NNW 13.8 mph - N/A   Clear
6:55 PM 5.0 °F -10.8 °F -0.4 °F 78% 30.41 in 10.0 mi NNW 11.5 mph 17.3 mph N/A   Clear
7:15 PM 5.0 °F -9.1 °F -0.4 °F 78% 30.41 in 10.0 mi North 9.2 mph - N/A   Clear
7:35 PM 5.0 °F -12.3 °F -2.2 °F 72% 30.40 in 10.0 mi North 13.8 mph - N/A   Clear
7:55 PM 5.0 °F -11.6 °F -2.2 °F 72% 30.39 in 10.0 mi North 12.7 mph - N/A   Clear
8:15 PM 5.0 °F -10.0 °F -2.2 °F 72% 30.38 in 10.0 mi North 10.4 mph 17.3 mph N/A   Clear
8:35 PM 5.0 °F -11.6 °F -2.2 °F 72% 30.37 in 10.0 mi North 12.7 mph - N/A   Clear
8:55 PM 5.0 °F -10.8 °F -2.2 °F 72% 30.36 in 10.0 mi North 11.5 mph - N/A   Clear
9:15 PM 5.0 °F -12.3 °F -2.2 °F 72% 30.35 in 10.0 mi North 13.8 mph - N/A   Clear
10:15 PM 3.2 °F -14.6 °F -2.2 °F 78% 30.34 in 10.0 mi North 13.8 mph - N/A   Clear
10:35 PM 3.2 °F -14.6 °F -2.2 °F 78% 30.33 in 10.0 mi North 13.8 mph - N/A   Clear
10:55 PM 3.2 °F -12.2 °F -4.0 °F 72% 30.33 in 10.0 mi North 10.4 mph - N/A   Partly Cloudy
11:15 PM 3.2 °F -11.3 °F -4.0 °F 72% 30.32 in 10.0 mi North 9.2 mph 16.1 mph N/A   Partly Cloudy
11:35 PM 1.4 °F -13.5 °F -4.0 °F 78% 30.33 in 10.0 mi North 9.2 mph - N/A   Clear
11:55 PM 1.4 °F -14.5 °F -4.0 °F 78% 30.33 in 10.0 mi North 10.4 mph - N/A   Clear